www.pogodaiklimat.ru
Время
(UTC), дата
13 5.11
14 5.11
15 5.11
16 5.11
17 5.11
18 5.11
19 5.11
20 5.11
21 5.11
22 5.11
23 5.11
00 6.11
01 6.11
02 6.11
03 6.11
04 6.11
05 6.11
06 6.11
07 6.11
08 6.11
09 6.11
10 6.11
11 6.11
12 6.11
13 6.11
14 6.11
15 6.11
16 6.11
17 6.11
18 6.11
19 6.11
20 6.11
21 6.11
22 6.11
23 6.11
00 7.11
01 7.11
02 7.11
03 7.11
04 7.11
05 7.11
06 7.11
07 7.11
08 7.11
09 7.11
10 7.11
11 7.11
12 7.11
13 7.11
14 7.11
15 7.11
16 7.11
17 7.11
18 7.11
19 7.11
20 7.11
21 7.11
22 7.11
23 7.11
00 8.11
01 8.11
02 8.11
03 8.11
04 8.11
05 8.11
06 8.11
07 8.11
08 8.11
09 8.11
10 8.11
11 8.11
12 8.11
13 8.11
14 8.11
15 8.11
16 8.11
17 8.11
18 8.11
19 8.11
20 8.11
21 8.11
22 8.11
23 8.11
00 9.11
01 9.11
02 9.11
03 9.11
04 9.11
05 9.11
06 9.11
07 9.11
08 9.11
09 9.11
10 9.11
11 9.11
12 9.11
13 9.11
14 9.11
15 9.11
16 9.11
17 9.11
18 9.11
19 9.11
20 9.11
21 9.11
22 9.11
23 9.11
00 10.11
01 10.11
02 10.11
03 10.11
04 10.11
05 10.11
06 10.11
07 10.11
08 10.11
09 10.11
10 10.11
11 10.11
12 10.11
13 10.11
14 10.11
15 10.11
16 10.11
17 10.11
18 10.11
20 10.11
21 10.11
22 10.11
23 10.11
00 11.11
01 11.11
02 11.11
03 11.11
04 11.11
05 11.11
07 11.11
08 11.11
09 11.11
10 11.11
11 11.11
12 11.11
13 11.11
14 11.11
15 11.11
16 11.11
17 11.11
18 11.11
19 11.11
20 11.11
21 11.11
22 11.11
23 11.11
00 12.11
01 12.11
02 12.11
03 12.11
04 12.11
05 12.11
06 12.11
07 12.11
08 12.11
09 12.11
10 12.11
11 12.11
12 12.11
13 12.11
Ветер
(напр.,м/с)
Видим. Явления Облачность Т
(С)
Тd
(С)
f
(%)
Тe
(С)
Тes
(С)
Комфортность P
(гПа)
Po
(гПа)
Тmin
(С)
Tmax
(С)
R
(мм)
R24
(мм)
S
(см)
ЮЗ 4-5
{6}
45 км 9/5 800 м
[Cu Sc Ac As Ci fib]
+11.9 +6.1 68 +10 +10 тепло 998.0 985.7
Ю 3-4
{6}
45 км осадки на расстоянии 8/4 750 м
[Cu Sc Ac lent Ci fib]
+11.4 +6.2 70 +10 +10 тепло 998.0 985.7
Ю 3-3
{6}
45 км осадки на расстоянии 4/4 600 м
[Cu Sc Ci fib]
+10.9 +6.5 74 +9 +9 по сезону 998.4 986.0
Ю 2-2
{4}
45 км в посл. час ливневой дождь туман 3/3 750 м
[Cu Sc]
+9.1 +7.0 87 +7 +7 по сезону 998.6 986.2
Ю 2-3
{3}
45 км 9/9 750 м
[Cu Sc]
+8.8 +7.0 88 +7 +7 тепло 998.9 986.4
Ю 2 45 км {ливн. осадки} 3/3 1200 м
[Cu Sc]
+7.3 +6.3 93 +5 +5 по сезону 999.0 986.5 +7.1 +12.7 0.0
ЮЗ 1-1
{2}
40 км осадки на расстоянии 9/9 900 м
[Cb cap]
+7.6 +6.9 95 +7 +7 тепло 999.5 987.0
Ю 2-3
{3}
30 км слаб. ливневой дождь 9/9 900 м
[Cb calv]
+8.2 +7.5 95 +6 +6 тепло 999.6 987.1
Ю 2-2
{3}
30 км в посл. час ливневой дождь 9/9 1300 м
[Sc]
+8.0 +7.5 97 +6 +6 по сезону 999.9 987.4 0.0
Ю 2-3
{3}
30 км 9/9 1300 м
[Sc]
+7.4 +7.1 98 +5 +5 по сезону 1000.0 987.5
Ю 2-3
{3}
30 км 10/10 1080 м
[Sc]
+7.6 +7.3 98 +5 +5 тепло 1000.4 987.9
Ю 2 18 км слаб. ливневой дождь 9/9 750 м
[Cu Sc]
+7.6 +7.1 97 +5 +5 по сезону 1000.5 988.0 0.4
Ю 2-3
{4}
30 км в посл. час ливневой дождь 9/9 1110 м
[Sc]
+7.5 +7.1 97 +5 +5 тепло 1000.8 988.3
Ю 2-2
{4}
30 км 6/6 1110 м
[Sc]
+7.3 +6.9 97 +5 +5 тепло 1000.9 988.4
Ю 1-2
{4}
7000 м местами туман поземный {ливн. осадки} 8/8 30 м
[Sc]
+6.0 +5.8 99 +5 +5 по сезону 1001.0 988.4 0.0
Ю 2-3
{3}
8000 м слаб. дождь 9/9 60 м
[Sc]
+7.0 +6.8 99 +5 +5 тепло 1001.3 988.7
ЮЗ 1-2
{4}
10 км в посл. час дождь 9/9 60 м
[Sc]
+7.2 +7.1 99 +6 +6 тепло 1001.6 989.0
Ю 2 9000 м в посл. час дождь {ливн. осадки} 9/9 50 м
[Sc]
+7.3 +7.0 98 +5 +5 по сезону 1001.8 989.2 +5.7 +8.2 0.3
Ю 2-3
{4}
14 км 9/9 90 м
[Sc]
+7.5 +7.2 98 +5 +5 тепло 1002.3 989.7
Ю 2-5
{5}
20 км слаб. дождь 9/9 120 м
[Cu Sc]
+8.0 +7.5 97 +6 +6 тепло 1003.0 990.5
ЮЗ 2 22 км в посл. час дождь 9/9 150 м
[Cu Sc]
+8.8 +8.0 95 +7 +7 по сезону 1003.5 991.0 0.0
ЮЗ 4-5
{5}
26 км 9/5 150 м
[Cu Sc Ac As]
+9.6 +7.8 89 +7 +7 тепло 1003.6 991.1
ЮЗ 4-5
{6}
26 км слаб. дождь 10/4 360 м
[Cu Sc Ac As]
+10.4 +7.6 83 +8 +8 тепло 1003.5 991.1
Ю 4 25 км слаб. дождь 9/5 420 м
[Cu Sc Ac As]
+10.3 +7.5 83 +8 +8 по сезону 1003.5 991.1 0.0
ЮЗ 4-5
{5}
40 км в посл. час ливневой дождь 9/8 700 м
[Cu Sc Ac As]
+11.3 +7.2 76 +9 +9 тепло 1003.4 991.0
ЮЗ 4-6
{7}
25 км слаб. ливневой дождь 9/9 600 м
[Cu Sc]
+10.9 +6.4 74 +9 +9 тепло 1003.5 991.1
Ю 4-6
{7}
35 км в посл. час ливневой дождь 9/8 720 м
[Cu Sc Ac As]
+10.7 +6.8 77 +8 +8 по сезону 1003.7 991.3 0.0
Ю 3-4
{6}
20 км слаб. дождь 9/9 720 м
[Cu Sc]
+10.0 +7.3 83 +8 +8 тепло 1003.8 991.3
Ю 4-5
{5}
25 км слаб. дождь 9/9 400 м
[Cu Sc]
+9.6 +7.6 87 +7 +7 тепло 1003.9 991.4
Ю 3 30 км в посл. час дождь {ливн. осадки} 9/9 1500 м
[Sc]
+9.4 +7.6 89 +7 +7 по сезону 1004.2 991.7 +7.2 +11.5 0.0
Ю 3-4
{5}
30 км слаб. дождь 9/6 1500 м
[Sc Ac As]
+9.0 +7.5 90 +6 +6 тепло 1004.1 991.6
Ю 4-6
{6}
28 км слаб. дождь 10/8 750 м
[Cu Sc Ac As]
+8.9 +7.6 92 +6 +6 тепло 1004.2 991.7
Ю 4 15 км ливневой дождь 10/9 300 м
[Cu Sc]
+8.8 +7.8 93 +6 +6 по сезону 1004.3 991.8 0.2
Ю 4-6
{6}
15 км в посл. час ливневой дождь 10/10 120 м
[Sc]
+8.6 +8.0 96 +5 +5 тепло 1004.0 991.5
Ю 4-5
{7}
14 км 9/9 90 м
[Sc]
+8.7 +8.2 97 +5 +5 тепло 1003.7 991.2
Ю 4 15 км {ливн. осадки, дождь} 9/9 120 м
[Sc]
+8.7 +8.0 95 +5 +5 по сезону 1003.4 990.9 0.2
Ю 4-6
{7}
16 км 9/9 120 м
[Sc]
+8.6 +7.9 95 +5 +5 тепло 1003.0 990.5
Ю 3-4
{5}
18 км 9/9 120 м
[Sc]
+7.8 +7.2 96 +5 +5 тепло 1002.8 990.3
Ю 3-4
{7}
13 км 8/6 150 м
[Sc Ac trans Ci fib]
+7.3 +6.9 97 +4 +4 по сезону 1002.8 990.2
Ю 3-5
{5}
13 км 9/9 120 м
[Sc]
+8.1 +7.4 95 +5 +5 тепло 1002.4 989.9
Ю 4-6
{7}
13 км в посл. час дождь 9/9 120 м
[Sc]
+8.2 +7.4 95 +5 +5 тепло 1002.1 989.6
Ю 3 30 км {дождь} 8/4 600 м
[Sc Ac trans]
+8.1 +7.1 93 +5 +5 по сезону 1001.8 989.3 +7.2 +9.5 0.0
Ю 4-6
{6}
40 км 8/3 210 м
[Cu Sc Ac trans Ci fib]
+7.9 +6.6 91 +4 +4 тепло 1001.7 989.2
ЮВ 3-5
{5}
40 км 8/4 270 м
[Cu Sc Ac trans Ci fib]
+9.1 +6.6 84 +7 +7 тепло 1001.2 988.7
ЮВ 4 45 км 8/4 330 м
[Cu Sc Ac As Ci fib]
+10.3 +6.2 76 +8 +8 тепло 1000.9 988.5
ЮВ 3-5
{6}
50 км 9/3 540 м
[Cu Sc Ac As Ci sp]
+11.1 +6.0 71 +9 +10 тепло 1000.4 988.0
ЮВ 4-5
{6}
50 км 9/6 660 м
[Cu Sc Ac trans]
+11.0 +6.3 73 +9 +9 тепло 1000.0 987.6
Ю 4 15 км слаб. дождь 10/9 500 м
[Cu Sc]
+9.6 +6.4 80 +7 +7 по сезону 1000.5 988.1 0.2
Ю 4-7
{11}
60 км слаб. дождь 10/10 500 м
[Cu Sc]
+8.5 +6.3 86 +5 +5 по сезону 1000.4 987.9
Ю 6-9
{11}
45 км в посл. час дождь 10/10 500 м
[Cu Sc]
+8.9 +6.6 85 +5 +5 тепло 1000.6 988.1
Ю 6-10
{11}
50 км {дождь} 6/4 420 м
[Cu Sc Ac lent Ci fib]
+10.0 +6.7 80 +7 +7 по сезону 1000.8 988.4 0.9
Ю 7-10
{10}
50 км 6/4 500 м
[Cu Sc Ac lent Ci sp]
+9.5 +6.3 80 +6 +6 тепло 1001.5 989.0
Ю 6-8
{9}
60 км 8/5 500 м
[Cu Sc Ac trans Ci sp]
+9.2 +6.2 81 +6 +6 тепло 1002.6 990.1
ЮЗ 5 65 км {дождь} 6/3 700 м
[Cu Sc Ci sp]
+8.4 +5.1 80 +5 +5 по сезону 1003.8 991.3 +7.8 +11.2
ЮЗ 3-4
{6}
65 км 8/1 450 м
[Cu Sc Cs]
+6.4 +4.7 89 +3 +3 по сезону 1004.2 991.6
Ю 2-4
{4}
65 км 9/1 870 м
[Sc Cs]
+6.2 +4.8 91 +4 +4 тепло 1005.2 992.5
Ю 2-2
{6}
60 км 9/1 900 м
[Sc As trans Cs]
+5.6 +4.6 93 +3 +3 по сезону 1005.6 992.9
Ю 2-3
{3}
60 км 9/1 900 м
[Sc As trans]
+5.3 +4.5 95 +3 +3 по сезону 1006.1 993.4
СЗ 2-2
{3}
55 км 10/1 870 м
[Cu hum As trans]
+4.7 +4.1 96 +2 +2 тепло 1006.2 993.5
СЗ 1 55 км 10/0
[Ac As]
+4.1 +3.6 97 +2 +2 по сезону 1006.6 993.8
Ю 1-1
{1}
50 км 9/0
[Ac As]
+3.8 +3.7 99 +2 +2 по сезону 1006.1 993.3
ЮЗ 1-1
{1}
40 км 10/0
[Ac As]
+3.4 +3.0 97 +2 +2 тепло 1006.3 993.5
Ю 1-1
{1}
40 км 10/0
[Ac As]
+3.4 +3.2 99 +2 +2 по сезону 1006.3 993.5
СВ 1-2
{2}
40 км 10/0
[Ac As]
+3.8 +3.5 98 +2 +2 по сезону 1006.1 993.3
СВ 1-2
{2}
35 км 10/1 90 м
[St Ac As]
+3.7 +3.5 99 +2 +2 тепло 1006.2 993.4
С 2 30 км 9/0
[Ac As]
+4.9 +4.4 97 +2 +2 по сезону 1006.2 993.5 +3.3 +8.5
СВ 1-2
{4}
30 км 10/1 1500 м
[Sc Ac As]
+5.4 +4.7 95 +4 +4 тепло 1006.4 993.7
С 3-5
{5}
30 км 9/1 1500 м
[Sc Ac As Cs]
+5.9 +5.0 94 +2 +3 тепло 1006.4 993.7
СВ 3 30 км слаб. дождь 10/4 1080 м
[Sc As op Cs]
+6.5 +5.0 90 +3 +4 по сезону 1006.5 993.8 0.0
СВ 3-5
{6}
30 км в посл. час дождь 10/4 900 м
[Sc Ac As Cs]
+7.2 +5.0 86 +4 +5 тепло 1006.3 993.7
СВ 3-4
{5}
35 км в посл. час дождь 9/6 900 м
[Sc As trans Ci sp]
+7.5 +5.1 85 +5 +5 тепло 1006.0 993.4
С 2 40 км в посл. час дождь 10/6 750 м
[Cu Sc As trans]
+7.7 +5.3 85 +6 +6 по сезону 1005.6 993.0 0.0
СВ 2-4
{6}
30 км слаб. дождь 10/5 600 м
[Cu Sc As op]
+8.0 +5.5 84 +6 +6 тепло 1005.9 993.3
СВ 4-6
{8}
25 км слаб. дождь 10/6 450 м
[Cu Sc As op]
+7.3 +4.6 83 +4 +4 тепло 1006.3 993.7
С 5 25 км слаб. дождь 10/6 500 м
[Cu Sc As op]
+6.8 +4.0 82 +3 +3 по сезону 1006.3 993.7 0.7
СВ 4-6
{7}
30 км слаб. дождь 10/6 570 м
[Cu Sc As op]
+6.9 +4.2 83 +3 +3 по сезону 1006.4 993.8
С 3-5
{6}
20 км слаб. дождь 10/6 570 м
[Cu Sc As op]
+6.3 +4.7 89 +3 +3 тепло 1007.1 994.4
СЗ 2 15 км слаб. дождь 10/8 540 м
[Cu Sc As op]
+5.9 +5.1 95 +3 +3 по сезону 1007.8 995.1 +5.0 +8.2 2
С 2-4
{4}
15 км слаб. дождь 10/9 540 м
[Cu Sc]
+5.8 +4.6 92 +3 +3 по сезону 1007.8 995.1
СВ 2-2
{4}
20 км слаб. дождь 10/5 400 м
[Sc As op]
+6.0 +4.9 93 +3 +3 тепло 1008.1 995.4
СВ 3 15 км слаб. дождь 10/8 420 м
[Sc As op]
+6.2 +4.7 90 +3 +3 по сезону 1008.5 995.8 2
С 2-3
{3}
25 км в посл. час дождь 9/9 150 м
[Sc]
+5.5 +4.9 96 +3 +3 по сезону 1008.5 995.8
Ю 2-2
{2}
20 км слаб. дождь 9/9 180 м
[Sc]
+5.4 +5.0 97 +3 +3 тепло 1009.1 996.4
ЮЗ 2 20 км слаб. дождь 9/9 400 м
[Sc]
+5.2 +4.8 97 +2 +2 по сезону 1009.3 996.5 0.0
ЮЗ 1-1
{2}
12 км в посл. час дождь 9/9 150 м
[Sc]
+5.1 +4.7 97 +4 +4 тепло 1009.2 996.4
Ю 2-3
{3}
9000 м в посл. час дождь 9/9 60 м
[Sc]
+5.2 +4.8 97 +2 +2 тепло 1009.5 996.7
ЮЗ 3-3
{4}
7000 м слаб. дождь 9/9 60 м
[Sc]
+5.2 +4.8 97 +2 +2 по сезону 1009.5 996.7 0.2
ЮЗ 3-3
{5}
12 км в посл. час дождь 9/9 120 м
[Sc]
+5.3 +4.8 97 +2 +2 тепло 1009.6 996.8
Ю 2-3
{5}
8000 м 5/5 60 м
[St]
+4.5 +4.2 98 +2 +2 тепло 1009.8 997.0
Ю 2 5000 м туман на расстоянии {дождь} 9/8 50 м
[Sc Ci fib]
+4.8 +4.5 98 +2 +2 по сезону 1010.1 997.3 +4.3 +6.4 0.8
Ю 2-3
{3}
3000 м дымка 9/8 60 м
[Sc Ci fib]
+5.0 +4.7 98 +2 +2 тепло 1010.4 997.6
ЮЗ 4-5
{5}
3000 м дымка 5/5 30 м
[St Ci sp]
+5.5 +5.1 97 +1 +1 тепло 1011.0 998.2
ЮЗ 3 13 км 3/3 120 м
[Cu med, cong Ac cast Ci sp]
+6.8 +4.7 86 +4 +5 по сезону 1010.7 998.0
Ю 3-5
{5}
30 км 4/4 360 м
[Cu med, cong Ac cast Ci sp]
+8.0 +4.6 79 +5 +7 тепло 1010.8 998.2
ЮЗ 5-6
{7}
35 км 6/4 540 м
[Cu med, cong Ac cast Ci sp]
+8.4 +4.3 75 +5 +6 тепло 1010.6 998.0
ЮЗ 6 40 км 6/4 750 м
[Cu med, cong Ac cast Ci sp]
+9.8 +4.2 68 +6 +7 по сезону 1010.1 997.5
ЮЗ 6-8
{9}
50 км 8/6 750 м
[Cu Sc Ac lent Ci sp]
+7.9 +2.9 71 +4 +4 тепло 1010.3 997.6
ЮЗ 5-7
{8}
50 км 3/1 720 м
[Cu Sc Ac lent Ci fib]
+8.1 +2.3 67 +5 +5 тепло 1010.2 997.6
Ю 3-5
{9}
50 км 5/4 720 м
[Cu Sc Ac trans Ci fib]
+6.8 +2.8 76 +4 +4 по сезону 1010.2 997.5
ЮЗ 3-4
{6}
40 км 3/1 720 м
[Cu Sc Ac trans Ci fib]
+6.2 +2.6 78 +3 +3 по сезону 1010.1 997.4
ЮЗ 1-2
{3}
35 км 6/6 2000 м
[Sc]
+4.2 +2.6 89 +3 +3 тепло 1010.2 997.4
В 1 35 км 6/6 870 м
[Sc]
+3.5 +2.9 96 +2 +2 по сезону 1010.3 997.4 +3.1 +10.0
ЮВ 1-2
{2}
35 км 6/6 960 м
[Sc]
+3.5 +2.8 95 +2 +2 по сезону 1010.1 997.3
Ю 4-5
{5}
35 км слаб. ливневой дождь 10/6 660 м
[Cu Sc Ac As]
+4.6 +3.2 91 0 0 тепло 1010.2 997.4
Ю 2-3
{6}
35 км в посл. час ливневой дождь 9/6 600 м
[Cu Sc Ac trans]
+4.4 +3.5 94 +2 +2 по сезону 1010.0 997.2 0.0
Ю 2-3
{3}
30 км 1/0
[Ac trans]
+2.4 +1.8 96 -1 -1 по сезону 1010.2 997.3
В 1-2
{3}
25 км местами туман поземный ясно +1.5 +1.2 98 -1 -1 по сезону 1010.0 997.1
С 1-2
{6}
25 км местами туман поземный {ливн. осадки} ясно +0.5 0.0 96 -2 -2 холодно 1010.2 997.2
В 1-1
{3}
25 км местами туман поземный 1/1 840 м
[Sc]
+0.1 0.0 99 -2 -2 по сезону 1010.1 997.1
СВ 1-2
{2}
1500 м туман на расстоянии 9/9 30 м
[St]
+0.6 +0.4 99 -2 -2 по сезону 1010.2 997.2
С 2-3
{3}
100 м туман 9/9 30 м
[St]
+1.2 +1.2 100 -3 -3 холодно 1010.3 997.3
С 2-3
{4}
200 м туман ?/? +1.4 +1.4 100 -2 -2 по сезону 1010.6 997.6
В 5-6
{6}
400 м туман ?/? +0.4 +0.3 99 -6 -6 по сезону 1011.1 998.1
В 3 400 м туман ?/? +1.2 +1.2 100 -4 -4 холодно 1011.4 998.4 -0.9 +4.7
СВ 4-5
{6}
700 м туман 10/10 30 м
[St]
+1.7 +1.7 100 -4 -4 прохладно 1012.0 999.0
В 4-5
{5}
2200 м в посл. час туман туман 10/10 30 м
[St]
+1.8 +1.6 99 -4 -4 по сезону 1012.7 999.7
В 4 2800 м туман на расстоянии 10/10 30 м
[St]
+1.5 +1.3 99 -4 -4 очень
холодно
1013.6 1000.6
В 4-5
{6}
5000 м дымка 9/9 60 м
[St]
+2.5 +1.9 96 -3 -2 прохладно 1014.0 1001.1
СВ 3-5
{7}
8000 м 10/10 60 м
[St]
+3.2 +2.3 94 -1 -1 по сезону 1013.9 1001.0
В 3 8000 м {туман} 10/10 60 м
[St]
+3.1 +2.0 92 -1 -1 холодно 1014.2 1001.3
В 4-5
{5}
9000 м 10/10 90 м
[St]
+3.4 +2.1 91 -1 -1 прохладно 1014.3 1001.4
ЮВ 2-3
{5}
11 км 10/10 150 м
[St]
+3.7 +2.2 90 +1 +1 по сезону 1014.7 1001.8
С 3-4
{5}
11 км 10/10 180 м
[St]
+3.8 +2.3 90 -0 -0 холодно 1015.4 1002.5
С 3-4
{5}
10 км 10/10 150 м
[St]
+3.6 +2.3 91 -0 -0 прохладно 1016.1 1003.2
С 3-5
{5}
10 км 10/10 150 м
[St]
+3.4 +2.2 92 -1 -1 по сезону 1016.7 1003.8
ЮЗ 1 9000 м 10/10 90 м
[St]
+3.0 +2.1 94 +1 +1 прохладно 1017.4 1004.4 +1.3 +4.0
ЮЗ 1-2
{6}
10 км 10/10 210 м
[St]
+3.6 +2.6 93 +2 +2 по сезону 1017.0 1004.1
ЮВ 2-2
{6}
10 км 10/10 180 м
[St]
+3.7 +2.4 91 +1 +1 прохладно 1017.2 1004.3
Ю 2-3
{4}
8000 м 10/10 150 м
[St]
+3.5 +2.4 92 0 0 по сезону 1017.2 1004.3
Ю 2-3
{4}
5000 м слаб. морось туман 10/10 120 м
[St]
+3.1 +2.5 96 -0 -0 по сезону 1017.4 1004.4
Ю 2-3
{6}
2500 м слаб. морось 10/10 90 м
[St]
+2.8 +2.4 97 -1 -1 прохладно 1017.2 1004.2 0.0
ЮЗ 2-3
{4}
5000 м слаб. морось туман 10/10 90 м
[St]
+2.7 +2.0 95 -1 -1 по сезону 1017.0 1004.0
З 1-3
{3}
5000 м слаб. морось туман 10/10 90 м
[St]
+2.9 +2.1 94 +1 +1 тепло 1016.9 1003.9
Ю 1-4
{4}
6000 м в посл. час морось туман 10/10 150 м
[St]
+2.9 +2.4 97 +1 +1 по сезону 1016.2 1003.2 0.0
Ю 1-1
{2}
6000 м дымка 10/10 180 м
[St]
+3.0 +2.5 97 +1 +1 по сезону 1015.7 1002.8
Ю 2-3
{4}
5000 м слаб. морось туман 10/10 90 м
[St]
+2.9 +2.2 95 -0 -0 по сезону 1015.1 1002.2
ЮВ 3-4
{5}
4000 м слаб. морось 10/10 90 м
[St]
+2.5 +1.6 94 -2 -2 тепло 1014.5 1001.5
ЮВ 3-4
{5}
7000 м слаб. морось 10/10 120 м
[St]
+2.2 +1.5 95 -2 -2 тепло 1014.2 1001.2
ЮВ 3 10 км в посл. час морось 10/10 150 м
[St Cs]
+2.4 +1.3 92 -2 -2 холодно 1013.3 1000.4 0.0
Ю 3-6
{6}
9000 м 10/10 150 м
[St]
+2.5 +1.1 90 -2 -2 прохладно 1012.7 999.8
Ю 3-5
{6}
9000 м 10/10 180 м
[St]
+2.7 +0.7 87 -1 -1 по сезону 1011.8 998.9
Ю 4 11 км {морось} 10/10 240 м
[St]
+2.8 +0.6 85 -2 -2 очень
холодно
1010.6 997.7
Ю 3-6
{6}
14 км 10/10 240 м
[St]
+3.1 +0.8 85 -1 -1 прохладно 1009.7 996.8
Ю 3-5
{5}
15 км 10/10 240 м
[Sc]
+3.3 +1.2 86 -1 -1 по сезону 1008.8 996.0
Ю 4 15 км 10/10 180 м
[St]
+3.1 +1.3 88 -2 -2 холодно 1008.1 995.3
Ю 4-5
{6}
14 км 10/10 180 м
[St]
+3.0 +1.1 87 -2 -2 прохладно 1007.6 994.8
Ю 2-4
{5}
15 км 10/8 210 м
[Sc Ac As]
+2.9 +0.7 85 -0 -0 по сезону 1007.4 994.6
Ю 3 17 км 9/3 300 м
[Sc Ac As Ci sp]
+2.7 +0.3 84 -1 -1 холодно 1007.5 994.6 +2.1 +3.3
ЮВ 2-3
{5}
18 км 9/6 450 м
[Sc Ac und Cs]
+2.7 +0.7 87 -0 -0 по сезону 1007.3 994.4
ЮВ 1-2
{3}
8000 м слаб. дождь 10/6 180 м
[Sc As op]
+2.6 +1.3 91 +1 +1 по сезону 1007.2 994.3
Ю 1 7000 м слаб. дождь 10/5 180 м
[Sc As op]
+2.8 +2.0 94 +1 +1 прохладно 1007.0 994.2 2
Ю 2-3
{3}
7000 м слаб. дождь 10/4 210 м
[Frnb As op]
+3.0 +2.4 96 -0 -0 по сезону 1006.8 994.0
Ю 4-5
{5}
7000 м слаб. дождь 10/4 120 м
[Frnb As op]
+3.6 +3.1 97 -1 -1 по сезону 1007.0 994.2
Ю 2 8000 м в посл. час дождь 10/9 150 м
[Sc]
+3.8 +3.3 97 +1 +1 по сезону 1007.0 994.2 0.7
Ю 3-5
{5}
8000 м в посл. час дождь 9/9 150 м
[Sc]
+3.9 +3.5 97 -0 -0 по сезону 1007.3 994.5
Ю 3-4
{5}
7000 м дымка 9/9 120 м
[Sc]
+3.8 +3.4 97 -0 -0 по сезону 1007.6 994.8
Ю 4-5
{6}
6000 м дымка {дождь} 8/8 120 м
[Sc Ci sp]
+4.0 +3.4 96 -1 -1 прохладно 1007.5 994.7 0.0
Ю 4-5
{5}
15 км 9/9 570 м
[Sc]
+4.1 +3.4 95 -1 -1 по сезону 1007.4 994.6
Ю 4-5
{6}
20 км 8/8 570 м
[Sc]
+4.4 +3.6 95 -0 -0 по сезону 1007.4 994.6
Ю 3 18 км {дождь} 5/5 200 м
[Cu Sc]
+4.0 +3.3 95 0 0 по сезону 1006.9 994.1 +2.3 +4.5
Ю 5-7
{7}
18 км 6/6 120 м
[Cu Sc]
+4.3 +3.4 94 -1 -1 по сезону 1007.2 994.4
Ю 3-5
{7}
18 км 8/8 240 м
[Cu Sc]
+4.9 +3.6 91 +1 +1 тепло 1007.4 994.7
Ю 5 18 км 8/8 240 м
[Cu Sc]
+5.6 +3.3 85 +1 +1 прохладно 1007.0 994.3
Ю 4-6
{7}
35 км 8/8 360 м
[Cu Sc]
+6.9 +3.2 77 +3 +4 по сезону 1006.1 993.5
Ю 6-8
{9}
45 км 6/6 480 м
[Cu Sc]
+7.4 +3.3 75 +3 +4 тепло 1005.5 992.9
Ю 5 45 км 9/9 600 м
[Cu Sc]
+7.8 +2.7 70 +4 +4 по сезону 1004.6 992.0
Ю 5-8
{9}
35 км слаб. дождь 9/9 600 м
[Cu Sc]
+8.0 +2.4 68 +5 +5 по сезону 1004.0 991.4
Местоположение метеостанции Франкфурт-на-Майне (Германия): широта 50.05 долгота 8.60 высота над уровнем моря 112 м.
В архиве по умолчанию представлена погода во Франкфурте-на-Майне за последнюю неделю. Архивные данные за месяц целиком и за предыдущие месяцы, начиная с января 2011 года, Вы можете получить, выбрав интересующий диапазон дат из раскрывающегося списка и нажав кнопку "Найти!".
*Определитесь, кто Вы:
Внимание! Время в таблицах - всемирное. Для получения местного времени необходимо прибавить поправку, которая равна 1 ч.
Смотрите также архив погоды в соседних городах и на ближайших метеорологических станциях:
Партнеры нашего сайта:      
Пояснения к столбцам:
  • Ветер - указаны скорость ветра в м/с - средняя за 10 мин, порывы в срок и между сроками (в фигурных скобках) и направление, откуда дует ветер: С - северный,
  • СВ - северо-восточный, В - восточный, ЮВ - юго-восточный, Ю - южный, ЮЗ - юго-западный, З - западный, СЗ - северо-западный.
  • Видимость - горизонтальная дальность видимости в метрах или километрах. При видимости от 1 до 10 км при отсутствии осадков обычно наблюдается дымка, при ухудшении видимости до 1 км и менее - туман. В сухую погоду видимость может ухудшаться дымом, пылью или мглою.
  • Явления - указаны атмосферные явления, наблюдавшиеся в срок или в последний час перед сроком; фигурными скобками обозначены явления, наблюдавшиеся между сроками (за 1-3 часа до срока); квадратными скобками обозначены град или гололедные отложения с указанием их диаметра в мм.
  • Облачность - указаны через наклонную черту общая и нижняя облачность в баллах и высота нижней границы облаков в метрах; квадратными скобками обозначены формы облаков: Ci - перистые, Cs - перисто-слоистые, Cc - перисто-кучевые, Ac - высококучевые, As - высокослоистые, Sc - слоисто-кучевые, Ns - слоисто-дождевые, Cu - кучевые, Cb - кучево-дождевые. Подробнее классификацию облаков см. в Атласе облаков (PDF).
  • T - Температура воздуха - температура, измеренная на высоте 2 м над землей.
  • Td - Температура точки росы - температура, при понижении до которой содержащийся в воздухе водяной пар достигнет насыщения.
  • f - Относительная влажность воздуха - влажноcть воздуха, измеренная на высоте 2 м над землей.
  • Te - Эффективная температура - температура, которую ощущает одетый по сезону человек в тени. Характеристика душности погоды. При расчете учитывается влияние влажности воздуха и скорости ветра на теплоощущения человека.
  • Tes - Эффективная температура на солнце - температура, которую ощущает человек, с поправкой на солнечный нагрев. Характеристика знойности погоды. Зависит от высоты солнца над горизонтом, облачности и скорости ветра. Ночью, в пасмурную погоду, а также при ветре 12 м/с и более поправка равна нулю.
  • P - Атмосферное давление - приведенное к уровню моря атмосферное давление.
  • Po - Атмосферное давление - измеренное на уровне метеостанции атмосферное давление.
  • Tmin - Минимальная температура - минимум температуры воздуха на высоте 2 м над землей.
  • Tmax - Максимальная температура - максимум температуры воздуха на высоте 2 м над землей.
  • R - Количество осадков - Количество выпавших осадков за период времени, мм. При наведении курсора мыши на число - период времени, за который выпало указанное количество осадков.
  • R24 - Количество осадков - Количество выпавших осадков за 24 часа, мм.
  • S - Снежный покров - Высота снежного покрова, см. При наведении курсора мыши на число - состояние снежного покрова и степень покрытия местности в баллах.